Change the Weather History Date:

Tuesday, March 5, 2013

  Actual Average Record
Temperature  
Mean Temperature 52 °F 53 °F  
Max Temperature 58 °F 61 °F 68 °F (2011)
Min Temperature 46 °F 46 °F 37 °F (1999)
Degree Days  
Heating Degree Days 13    
Month to date heating degree days 60  
Since 1 July heating degree days 2326  
Cooling Degree Days 0    
Month to date cooling degree days 0  
Year to date cooling degree days 0  
Growing Degree Days 2 (Base 50)    
Moisture  
Dew Point 40 °F    
Average Humidity 68    
Maximum Humidity 86    
Minimum Humidity 50    
Precipitation  
Precipitation 0.01 in - 0.36 in (2001)
Month to date precipitation 0.01  
Year to date precipitation 1.59  
Since 1 July precipitation 9.83  
Sea Level Pressure  
Sea Level Pressure 30.06 in    
Wind  
Wind Speed 6 mph (SSW)    
Max Wind Speed 21 mph    
Max Gust Speed 26 mph    
Visibility 10 miles    
Events      
T = Trace of Precipitation, MM = Missing Value Source: NWS Daily Summary

Daily Weather History Graph

Daily Weather History Graph

Search for Another Location

Airport or City:

Trip Planner

Search our weather history database for the weather conditions in past years. The results will help you decide how hot, cold, wet, or windy it might be!

Date:

Astronomy

Mar. 05, 2013 Rise Set
Actual Time 6:32 AM PST 6:06 PM PST
Civil Twilight 6:06 AM PST 6:31 PM PST
Nautical Twilight 5:36 AM PST 7:01 PM PST
Astronomical Twilight 5:06 AM PST 7:31 PM PST
Moon 1:42 AM PST 11:57 AM PST
Length of Visible Light 12h 25m
Length of Day
11h 34m
Last Quarter, 39% of the Moon is Illuminated
Mar 5
Last Quarter
Mar 11
New
Mar 19
First Quarter
Mar 27
Full
Apr 2
Last Quarter

Hourly Weather History & Observations

Time (PST) Temp. Dew Point Humidity Pressure Visibility Wind Dir Wind Speed Gust Speed Precip Events Conditions
12:54 AM 48.0 °F 44.1 °F 86% 30.12 in 10.0 mi SSW 4.6 mph - N/A   Overcast
1:54 AM 48.0 °F 43.0 °F 83% 30.12 in 10.0 mi WSW 4.6 mph - N/A   Overcast
2:54 AM 48.0 °F 42.1 °F 80% 30.12 in 10.0 mi West 4.6 mph - N/A   Overcast
3:54 AM 48.0 °F 41.0 °F 77% 30.13 in 10.0 mi West 9.2 mph - N/A   Overcast
4:13 AM 48.2 °F 41.0 °F 76% 30.09 in 10.0 mi WSW 5.8 mph - N/A   Overcast
5:54 AM 48.0 °F 39.0 °F 71% 30.13 in 10.0 mi Calm Calm - N/A   Overcast
6:54 AM 46.9 °F 39.9 °F 77% 30.13 in 10.0 mi SE 3.5 mph - N/A   Overcast
7:54 AM 48.0 °F 41.0 °F 77% 30.14 in 10.0 mi Calm Calm - N/A   Overcast
8:54 AM 48.9 °F 41.0 °F 74% 30.14 in 10.0 mi Variable 3.5 mph - N/A   Overcast
9:35 AM 51.8 °F 39.2 °F 62% 30.09 in 10.0 mi Calm Calm - N/A   Scattered Clouds
9:54 AM 53.1 °F 41.0 °F 64% 30.13 in 10.0 mi Variable 3.5 mph - N/A   Scattered Clouds
10:54 AM 54.0 °F 41.0 °F 62% 30.11 in 10.0 mi NW 4.6 mph - N/A   Clear
11:54 AM 55.0 °F 42.1 °F 62% 30.10 in 10.0 mi SW 10.4 mph 16.1 mph N/A   Clear
12:54 PM 55.0 °F 42.1 °F 62% 30.07 in 10.0 mi SW 12.7 mph 19.6 mph N/A   Clear
1:54 PM 55.9 °F 42.1 °F 60% 30.04 in 10.0 mi SW 15.0 mph 26.5 mph N/A   Partly Cloudy
2:54 PM 57.0 °F 42.1 °F 57% 30.01 in 10.0 mi SW 8.1 mph - N/A   Clear
3:54 PM 55.9 °F 42.1 °F 60% 30.01 in 10.0 mi SSW 11.5 mph - N/A   Clear
4:54 PM 55.9 °F 39.0 °F 53% 30.00 in 10.0 mi South 6.9 mph - N/A   Clear
5:54 PM 54.0 °F 35.1 °F 49% 29.99 in 10.0 mi South 11.5 mph 19.6 mph N/A   Clear
6:54 PM 53.1 °F 35.1 °F 50% 29.99 in 10.0 mi SE 6.9 mph - N/A   Clear
7:54 PM 50.0 °F 33.1 °F 52% 29.99 in 10.0 mi Calm Calm - N/A   Clear
8:54 PM 48.9 °F 37.0 °F 64% 29.99 in 10.0 mi Variable 3.5 mph - N/A   Clear
9:54 PM 51.1 °F 36.0 °F 56% 29.99 in 10.0 mi Calm Calm - N/A   Overcast
10:54 PM 51.1 °F 41.0 °F 68% 29.99 in 10.0 mi Variable 5.8 mph - N/A   Overcast
11:54 PM 51.1 °F 44.1 °F 77% 29.98 in 10.0 mi East 3.5 mph - 0.01 in   Overcast